Location: Andrest
(43.3200°N, 0.0641°E)
Time: 09:37:56
(UTC+00:00)

Landsat 5 - Pass Details

Date: 01 December 2020
Orbit: 528 x 654 km, 98.2° (Epoch: 23 January)

Event Time Altitude Azimuth Distance (km) Brightness Sun altitude
Rises 16:54:40 0° 14° (NNE) 2,949 6.7 -5.6°
Reaches altitude 10° 16:56:52 10° 16° (NNE) 2,048 5.9 -6.0°
Maximum altitude 17:01:21 78° 104° (ESE) 670 3.7 -6.7°
Drops below altitude 10° 17:05:52 10° 190° (S) 2,057 6.7 -7.5°
Sets 17:08:05 0° 192° (SSW) 2,962 7.6 -7.8°
